SCP
0 0 0 0 0 0 0 0 0 0 0 0 0 0 0 0 0 0 0 0 0 0 0 0 0 0 0 0 0 0 0 0 0 0 0 0 0 0 0 0 0 0 0 0
0 0 0 0 0 0 0 0 0 0 0 0 0 0 0 0 0 0 0 0 0 0 0 0 0 0 0 0 0 0 0 0 0 0 0 0 0 0 0 0 0 0 0 0
0 0 0 0 0 0 0 0 0 0 0 0 0 0 0 0 0 0 0 0 0 0 0 0 0 0 0 0 0 0 0 0 0 0 0 0 0 0 0 0 0 0 0 0
0 0 0 0 0 0 0 0 0 0 0 0 0 0 0 0 0 0 0 0 0 0 0 0 0 0 0 0 0 0 0 0 0 0 0 0 0 0 0 0 0 0 0 0
0 0 0 0 0 0 0 0 0 0 0 0 0 0 0 0 0 0 0 0 0 0 0 0 0 0 0 0 0 0 0 0 0 0 0 0 0 0 0 0 0 0 0 0
0 0 0 0 0 0 0 0 0 0 0 0 0 0 0 0 0 0 0 0 0 0 0 0 0 0 0 0 0 0 0 0 0 0 0 0 0 0 0 0 0 0 0 0
0 0 0 0 0 0 0 0 0 0 0 0 0 0 0 0 0 0 0 0 0 0 0 0 0 0 0 0 0 0 0 0 0 0 0 0 0 0 0 0 0 0 0 0
0 0 0 0 0 0 0 0 0 0 0 0 0 0 0 0 0 0 0 0 0 0 0 0 0 0 0 0 0 0 0 0 0 0 0 0 0 0 0 0 0 0 0 0
0 0 0 0 0 0 0 0 0 0 0 0 0 0 0 0 -0 0 0 0 0 0 0 0 0 0 0 0 0 0 0 0 0 0 0 0 0 0 0 0 0 0 0 0
0 0 0 0 0 0 0 0 0 0 0 0 0 0 0 0 0 0 0 0 0 0 0 0 0 0 0 0 0 0 0 0 0 0 0 0 0 0 0 0 0 0 0 0
0 0 0 0 0 0 0 0 0 0 0 0 0 0 0 0 0 0 0 0 0 0 0 0 0 0 0 0 0 0 0 0 0 0 0 0 0 0 0 0 0 0 0 0
0 0 0 0 0 0 0 0 0 0 0 0 0 0 0 0 0 0 0 0 0 0 0 0 0 0 0 0 0 0 0 0 0 0 0 0 0 0 0 0 0 0 0 0
0 0 0 0 0 0 0 0 0 0 0 0 0 0 0 0 0 0 0 0 0 0 0 0 0 0 0 0 0 0 0 0 0 0 0 0 0 0 0 0 0 0 0 0
0 0 0 0 0 0 0 0 0 0 0 0 0 0 0 0 0 0 0 0 0 0 0 0 0 0 0 0 0 0 0 0 0 0 0 0 0 0 0 0 0 0 0 0
0 0 0 0 0 0 0 0 0 0 0 0 0 0 0 0 0 0 0 0 0 0 0 0 0 0 0 0 0 0 0 0 0 0 0 0 0 0 0 0 0 0 0 0
0 0 0 0 0 0 0 0 0 0 0 0 0 0 0 0 0 0 0 0 0 0 0 0 0 0 0 0 0 0 0 0 0 0 0 0 0 0 0 0 0 0 0 0
0 0 0 0 0 0 0 0 0 0 0 0 0 0 0 0 0 0 0 0 0 0 0 0 0 0 0 0 0 0 0 0 0 0 0 0 0 0 0 0 0 0 0 0
0 0 0 0 0 0 0 0 0 0 0 0 0 0 0 0 0 0 0 0 0 0 0 0 0 0 0 0 0 0 0 0 0 0 0 0 0 0 0 0 0 0 0 0
0 0 0 0 0 0 0 0 0 0 0 0 0 0 0 0 0 0 0 0 0 0 0 0 0 0 0 0 0 0 0 0 0 0 0 0 0 0 0 0 0 0 0 0
0 0 0 0 0 0 0 0 0 0 0 0 0 0 0 0 0 0 0 0 0 0 0 0 0 0 0 0 0 0 0 0 0 0 0 0 0 0 0 0 0 0 0 0
0 0 0 0 0 0 0 0 0 0 0 0 0 0 0 0 0 0 0 -0 0 0 0 0 0 0 0 0 0 0 0 0 0 0 0 0 0 0 0 0 0 0 0 0
0 0 0 0 0 0 0 0 0 0 0 0 0 0 0 0 0 0 0 0 0 0 0 0 0 0 0 0 0 0 0 0 0 0 0 0 0 0 0 0 0 0 0 0
0 0 0 0 0 0 0 0 0 0 0 0 0 0 0 0 0 0 0 0 0 0 0 0 0 0 0 0 0 0 0 0 0 0 0 0 0 0 0 0 0 0 0 0
0 0 0 0 0 0 0 0 0 0 0 0 0 0 0 0 0 0 0 0 0 0 0 0 0 0 0 0 0 0 0 0 0 0 0 0 0 0 0 0 0 0 0 0
0 0 0 0 0 0 0 0 0 0 0 0 0 0 0 0 0 0 0 0 0 0 0 0 0 0 0 0 0 0 0 0 0 0 0 0 0 0 0 0 0 0 0 0
0 0 0 0 0 0 0 0 0 0 0 0 0 0 0 0 0 0 0 0 0 0 0 0 0 0 0 0 0 0 0 0 0 0 0 0 0 0 0 0 0 0 0 0
0 0 0 0 0 0 0 0 0 0 0 0 0 0 0 0 0 0 0 0 0 0 0 0 0 0 0 0 0 0 0 0 0 0 0 0 0 0 0 0 0 0 0 0
Wind_Speed
5 4 3 5 6 7 8 8 9 9 10 12 8 7 6 5 4 4 3 3 3 3 2 2 2 2 1 1 1 0 0 1 1 2 2 2 2 3 2 2 2 2 2 3
4 3 4 7 8 9 11 9 10 9 13 10 7 4 5 6 5 5 5 5 4 4 3 3 3 3 2 2 1 1 1 2 2 2 2 2 2 3 3 3 2 2 2 3
4 3 2 9 10 12 9 8 9 13 13 5 6 7 7 6 6 6 6 5 5 5 5 4 4 3 3 3 2 1 2 2 2 2 2 3 3 3 3 3 3 3 3 3
1 1 7 8 2 7 8 9 10 9 8 7 9 7 6 6 7 7 6 5 5 4 4 3 3 2 2 2 2 2 2 2 2 2 3 3 3 3 3 3 3 3 3 3
2 3 9 7 4 5 6 9 10 12 11 7 4 3 5 6 7 7 6 5 5 4 4 3 3 2 2 2 2 2 3 3 3 3 3 3 3 3 3 3 4 4 3 4
4 4 8 7 3 3 3 7 6 8 9 5 3 3 7 4 4 4 4 3 3 3 3 3 3 2 2 2 2 3 4 4 3 3 3 4 4 4 3 3 4 4 4 4
5 6 10 6 3 5 4 8 3 5 6 6 7 7 5 2 3 3 3 3 3 3 3 3 3 2 3 3 4 4 3 3 3 3 4 4 4 3 3 4 4 4 4 4
5 6 11 5 7 8 8 3 2 3 4 6 6 5 3 3 3 3 3 3 2 2 3 3 3 3 3 5 4 3 2 3 3 3 3 3 3 3 3 3 4 4 4 4
10 10 5 6 8 6 3 3 3 3 4 4 4 5 4 4 4 3 4 3 3 3 3 3 3 3 4 5 3 2 2 3 3 3 3 3 3 3 3 3 3 4 3 4
6 9 7 7 6 5 4 5 4 4 4 4 5 5 4 4 4 3 4 3 2 2 3 4 3 3 4 4 3 3 3 3 3 3 3 3 3 3 3 3 3 3 4 4
7 8 6 7 8 8 6 5 4 4 4 5 5 5 5 4 4 4 3 3 2 3 4 5 4 3 3 3 3 3 3 4 3 3 3 3 3 3 4 4 4 4 4 4
10 8 6 6 5 5 6 7 6 5 4 4 5 6 4 4 4 3 3 3 3 4 4 4 4 4 3 3 3 3 3 3 3 3 3 3 3 4 6 6 8 9 8 7
8 5 6 6 4 4 6 7 6 6 6 5 4 4 4 3 3 3 3 3 4 5 4 4 3 4 4 3 4 4 4 4 3 3 3 3 3 4 4 4 6 7 8 8
6 3 5 6 6 5 5 5 4 3 4 4 4 3 3 3 3 3 4 4 4 3 3 3 4 5 4 3 4 4 4 5 4 3 3 3 4 3 3 3 4 4 5 8
7 7 7 5 4 3 3 2 2 3 3 3 3 3 3 3 4 4 4 3 2 3 3 3 4 5 3 3 4 4 4 3 3 3 3 4 3 3 3 3 3 4 3 4
4 4 5 5 6 5 3 4 4 5 4 4 4 4 4 3 3 3 2 2 2 3 4 3 4 4 3 3 3 3 3 6 5 3 3 3 3 3 3 3 3 3 4 4
4 5 5 6 7 6 6 6 6 6 5 5 5 3 2 2 2 2 2 2 3 4 4 4 5 4 3 3 3 3 3 4 6 3 3 3 3 3 3 3 3 4 4 5
8 8 7 7 7 7 6 5 5 5 5 4 3 3 3 3 4 3 3 2 2 3 3 4 4 3 3 3 3 3 3 3 2 3 3 3 3 3 3 3 4 4 4 4
6 6 6 6 6 6 5 5 4 4 3 3 3 4 3 3 3 2 2 2 2 4 4 3 4 2 3 4 3 2 2 2 2 2 2 4 4 3 3 3 3 4 3 3
4 4 4 4 4 4 4 3 3 2 3 3 3 3 2 3 2 2 2 3 4 3 3 3 2 2 2 3 3 2 2 2 2 2 2 2 3 3 3 3 3 3 3 3
4 4 3 3 3 3 3 3 3 3 3 3 3 4 3 3 2 2 2 3 4 3 3 4 2 2 2 2 3 1 2 2 2 2 2 2 3 3 3 3 3 3 3 3
2 2 3 3 2 2 1 2 3 3 3 2 2 2 2 2 2 2 3 3 3 3 2 2 1 2 2 2 1 1 2 2 2 2 2 2 3 3 3 3 3 3 3 3
1 2 2 2 3 2 1 1 2 3 3 3 3 3 3 3 2 2 3 2 2 3 2 1 3 3 3 1 1 1 2 2 2 2 2 2 3 3 3 3 3 3 3 3
1 1 1 2 2 2 1 1 1 1 1 2 2 2 2 1 1 2 2 2 3 2 1 2 3 3 2 0 0 1 1 1 2 2 2 2 2 3 3 3 3 3 3 4
1 1 2 2 2 1 1 1 1 1 1 0 1 1 1 1 2 1 1 1 2 1 1 2 3 3 1 1 1 1 1 2 2 2 2 2 2 3 3 3 3 3 3 3
1 1 1 1 1 1 1 1 1 1 1 0 1 0 0 0 0 0 0 0 1 1 1 1 2 2 1 1 1 1 1 2 3 2 2 2 3 3 3 3 3 3 3 3
1 1 1 0 0 1 1 1 1 1 1 1 1 0 0 0 0 0 0 1 1 1 1 1 1 1 1 1 1 2 2 2 2 2 2 2 2 3 3 3 3 3 3 3
Wind_Direction
247 256 222 229 232 213 212 214 217 238 241 256 255 250 253 253 263 267 264 258 247 244 248 257 266 269 260 262 264 252 233 293 288 295 298 306 313 306 300 301 291 281 276 275
266 249 246 261 246 229 233 232 237 255 263 255 253 247 248 246 242 251 256 251 251 246 243 246 249 255 258 259 257 241 243 263 277 290 295 295 298 302 301 299 291 284 278 272
257 276 298 265 230 212 217 215 204 230 245 250 251 242 232 225 224 235 246 243 237 236 236 240 239 236 237 240 240 235 248 264 273 275 281 286 293 301 295 292 285 277 276 271
223 76 242 248 211 196 215 235 222 236 248 236 238 246 239 219 215 236 242 237 234 232 237 238 231 229 231 224 221 235 248 257 260 262 269 278 282 286 289 290 284 275 275 271
167 231 273 283 232 183 199 257 223 228 246 250 255 291 270 226 213 225 230 230 226 224 226 223 221 216 209 225 227 236 246 251 252 251 261 266 270 276 282 285 283 274 271 269
167 200 245 252 222 182 138 277 236 212 229 225 167 239 260 231 211 227 226 222 219 219 218 220 225 198 204 234 242 249 252 254 252 251 255 257 261 268 272 274 279 279 279 272
195 227 259 249 187 139 180 247 245 203 210 195 205 225 249 228 218 217 222 230 221 214 219 225 213 195 221 241 251 256 258 261 259 255 257 256 262 267 271 278 284 278 276 277
176 214 251 203 153 189 220 247 219 218 212 212 232 255 258 240 230 225 229 235 221 220 239 236 208 199 228 246 251 252 251 258 261 261 265 265 258 270 272 273 281 279 277 283
198 218 242 188 203 221 215 233 240 228 232 217 236 250 250 243 239 241 239 239 229 219 242 252 228 208 229 248 246 242 247 256 261 269 268 264 258 265 273 268 268 274 272 277
249 259 252 242 244 246 229 235 246 240 231 216 232 240 242 246 249 251 250 242 228 218 238 252 243 230 229 240 236 227 241 253 256 256 263 261 261 257 256 260 263 267 272 275
251 267 283 260 234 235 242 247 250 247 232 225 222 236 234 240 245 246 251 246 223 223 235 247 250 249 242 232 216 227 242 250 257 255 256 262 260 252 254 247 250 260 261 261
229 223 209 245 240 221 226 238 236 233 245 241 221 226 229 237 242 241 244 240 236 238 241 248 247 252 251 234 216 220 242 249 249 253 255 257 266 275 267 266 277 279 280 278
231 230 224 253 257 229 227 238 235 224 225 236 234 218 217 234 240 237 245 243 238 239 242 244 246 252 251 236 224 224 235 245 249 249 251 258 260 265 281 291 288 290 290 290
230 221 246 241 243 241 234 235 227 227 229 225 226 221 214 227 238 237 243 245 244 245 247 244 246 253 249 233 228 232 238 250 252 247 246 250 254 256 261 276 291 293 297 297
224 215 227 241 251 250 235 209 210 232 230 230 217 215 212 219 233 243 248 245 244 248 250 246 250 258 249 231 231 233 237 246 248 245 243 243 247 249 254 263 272 284 295 297
223 223 227 230 238 240 234 221 222 236 232 229 221 221 222 225 236 245 242 219 224 245 248 246 252 257 244 233 236 237 241 253 253 248 242 241 241 242 248 255 264 272 277 281
190 220 221 230 235 237 234 230 226 230 227 224 224 216 204 204 228 250 257 248 243 249 248 244 252 257 244 235 231 237 241 251 254 248 234 235 236 238 241 247 255 263 268 274
213 219 215 218 226 233 239 233 227 223 224 221 202 188 195 205 226 244 256 265 272 278 266 254 254 254 245 238 231 233 237 238 233 234 235 237 240 237 237 241 249 259 268 275
225 226 225 225 224 223 225 225 226 220 208 190 188 203 214 221 228 237 233 231 247 270 276 265 270 265 253 246 240 229 232 233 238 242 241 253 257 243 238 244 250 256 264 272
229 227 220 224 218 210 213 217 207 202 196 183 186 198 217 230 224 222 222 238 243 249 260 269 268 262 260 256 254 226 218 223 232 241 244 244 248 249 246 248 252 256 260 264
226 222 210 206 211 211 201 192 185 193 195 183 191 206 220 229 216 202 215 262 272 265 265 270 266 262 264 266 259 231 216 218 227 235 243 248 252 256 255 253 254 258 261 261
217 202 198 188 177 195 204 186 183 181 180 190 204 200 203 222 224 232 237 245 263 276 287 276 268 269 278 272 237 228 226 227 232 237 244 248 250 254 258 259 260 261 261 258
212 191 183 181 177 176 163 178 183 177 184 197 203 205 214 222 210 216 262 264 262 270 281 269 273 281 285 278 235 237 236 234 239 243 247 249 251 253 258 261 262 263 263 261
175 165 166 155 137 138 167 216 183 175 188 210 217 211 203 218 257 248 254 271 280 280 283 282 291 299 312 357 275 263 256 251 250 254 254 253 252 254 257 260 263 262 262 264
153 142 139 139 151 182 189 152 111 113 129 214 253 235 218 208 222 250 264 268 277 302 325 302 307 317 346 342 285 272 270 265 261 258 254 260 263 262 262 262 261 262 264 265
146 154 178 197 200 190 174 160 164 181 173 216 290 270 235 208 198 214 313 310 306 331 345 330 324 326 343 325 307 299 290 295 297 287 274 270 267 265 267 268 268 267 268 269
107 114 118 108 172 179 171 169 181 204 201 197 227 232 184 128 107 91 62 34 14 359 346 340 343 345 338 330 322 316 309 302 296 288 283 279 275 271 269 268 271 272 273 272